Location: Unspecified
(0.0000°N, 0.0000°E)
Time: 09:30:50
(UTC+00:00)

S-56A Canister/Altair - Pass Details

Date: 21 December 2018
Orbit: 633 x 2500 km, 38.9° (Epoch: 17 January)

Event Time Altitude Azimuth Distance (km) Brightness Sun altitude
Rises 10:24:55 0° 299° (WNW) 6,142 11.8 57.4°
Reaches altitude 10° 10:29:07 10° 295° (WNW) 5,159 11.6 58.1°
Maximum altitude 10:43:27 51° 224° (SW) 2,720 11.2 60.4°
Drops below altitude 10° 10:55:03 10° 150° (SSE) 4,204 11.9 62.0°
Sets 10:58:08 0° 145° (SE) 4,966 12.1 62.4°
